Location: Foligno
(42.9600°N, 12.7050°E)
Time: 02:21:57
(UTC+02:00)

ISS - Pass Details

Date: 19 July 2018
Orbit: 402 x 408 km, 51.6° (Epoch: 17 July)

Event Time Altitude Azimuth Distance (km) Brightness Sun altitude
Rises 22:59:57 0° 242° (WSW) 2,311 0.1 -19.1°
Reaches altitude 10° 23:02:02 10° 245° (WSW) 1,455 -0.9 -19.3°
Maximum altitude 23:05:17 68° 329° (NNW) 440 -3.6 -19.6°
Drops below altitude 10° 23:08:33 10° 53° (NE) 1,466 -1.0 -19.9°
Sets 23:10:39 0° 56° (NE) 2,329 0.1 -20.1°
